KF5WOE-13 Weather Reports


Display with metric or nautical units.
time (UTC)temp
F
wind
direction
speed
MPH
gust
MPH
rain 1hr
in
rain 24hr
in
rain mn
in
humidity
%
barometer
mb
20260905232604 140 72 0.0 0.0 0.00 0.00 0.00 1009.3
20260905232100 140 116 0.0 0.0 0.00 0.00 0.00 1009.4
20260905231554 140 91 4.0 7.0 0.00 0.00 0.00 1009.1
20260905231051 140 77 7.0 9.0 0.00 0.00 0.00 1009.8
20260905230551 140 86 7.0 8.0 0.00 0.00 0.00 1009.3
20260905230049 140 63 0.0 0.0 0.00 0.00 0.00 1009.4
20260905225549 140 49 0.0 0.0 0.00 0.00 0.00 1009.2
20260905225044 140 73 0.0 0.0 0.00 0.00 0.00 1009.1
20260905224544 140 137 0.0 0.0 0.00 0.00 0.00 1009.1
20260905224043 140 101 0.0 0.0 0.00 0.00 0.00 1009.4
20260905223541 140 103 0.0 1.0 0.00 0.00 0.00 1009.2
20260905223036 140 102 5.0 8.0 0.00 0.00 0.00 1009.5
20260905222531 140 90 2.0 5.0 0.00 0.00 0.00 1009.2
20260905222026 140 60 4.0 8.0 0.00 0.00 0.00 1009.3
20260905221523 140 69 5.0 9.0 0.00 0.00 0.00 1009.3
20260905221019 140 53 0.0 0.0 0.00 0.00 0.00 1009.1
20260905220514 140 82 4.0 8.0 0.00 0.00 0.00 1009.4
20260905220010 140 132 0.0 2.0 0.00 0.00 0.00 1009.1
20260905215505 140 145 0.0 0.0 0.00 0.00 0.00 1009.7
20260905215000 140 108 0.0 0.0 0.00 0.00 0.00 1009.5
20260905214456 140 103 0.0 0.0 0.00 0.00 0.00 1009.7
20260905213955 140 94 0.0 1.0 0.00 0.00 0.00 1009.5
20260905213452 140 137 0.0 0.0 0.00 0.00 0.00 1009.5
20260905212947 140 129 0.0 0.0 0.00 0.00 0.00 1009.7
20260905212442 140 80 0.0 0.0 0.00 0.00 0.00 1009.7
20260905211941 140 76 0.0 0.0 0.00 0.00 0.00 1009.8
20260905211436 140 141 3.0 6.0 0.00 0.00 0.00 1010.0
20260905210926 140 86 0.0 0.0 0.00 0.00 0.00 1010.1
20260905210421 140 103 3.0 6.0 0.00 0.00 0.00 1010.0
20260905205920 140 131 0.0 0.0 0.00 0.00 0.00 1009.8
20260905205415 140 143 0.0 0.0 0.00 0.00 0.00 1010.0
20260905204913 140 47 0.0 0.0 0.00 0.00 0.00 1010.2
20260905204410 140 89 0.0 0.0 0.00 0.00 0.00 1010.3
20260905203909 140 113 0.0 0.0 0.00 0.00 0.00 1010.2
20260905203404 140 126 0.0 0.0 0.00 0.00 0.00 1010.4
20260905202900 140 223 0.0 0.0 0.00 0.00 0.00 1010.6
20260905202355 140 272 0.0 0.0 0.00 0.00 0.00 1010.7
20260905201850 140 205 0.0 0.0 0.00 0.00 0.00 1010.6
20260905201346 140 150 0.0 0.0 0.00 0.00 0.00 1010.8
20260905200840 140 19 0.0 0.0 0.00 0.00 0.00 1011.2
20260905200337 140 86 0.0 0.0 0.00 0.00 0.00 1011.0
20260905195834 140 158 0.0 0.0 0.00 0.00 0.00 1011.1
20260905195329 140 114 0.0 0.0 0.00 0.00 0.00 1011.1
20260905194825 140 168 0.0 0.0 0.00 0.00 0.00 1011.4
20260905194325 140 186 4.0 8.0 0.00 0.00 0.00 1011.4
20260905193824 140 157 0.0 0.0 0.00 0.00 0.00 1011.3
20260905193319 140 148 1.0 6.0 0.00 0.00 0.00 1011.3
20260905192815 140 286 1.0 1.0 0.00 0.00 0.00 1011.4
20260905192310 140 169 2.0 5.0 0.00 0.00 0.00 1011.7
20260905191809 140 152 2.0 6.0 0.00 0.00 0.00 1011.7
20260905191308 140 60 0.0 0.0 0.00 0.00 0.00 1011.8
20260905190807 140 136 0.0 0.0 0.00 0.00 0.00 1011.7
20260905190301 140 191 0.0 0.0 0.00 0.00 0.00 1011.9
20260905185800 140 152 7.0 8.0 0.00 0.00 0.00 1012.0
20260905185255 140 161 0.0 0.0 0.00 0.00 0.00 1012.1
20260905184755 140 64 3.0 3.0 0.00 0.00 0.00 1012.2
20260905184253 140 60 5.0 7.0 0.00 0.00 0.00 1012.2
20260905183747 140 118 6.0 10.0 0.00 0.00 0.00 1012.2
20260905183243 140 97 6.0 9.0 0.00 0.00 0.00 1012.3
20260905182742 140 162 1.0 2.0 0.00 0.00 0.00 1012.3
20260905182242 140 268 0.0 0.0 0.00 0.00 0.00 1012.5
20260905181737 140 215 0.0 0.0 0.00 0.00 0.00 1012.4
20260905181236 140 172 3.0 6.0 0.00 0.00 0.00 1012.5
20260905180731 140 70 0.0 0.0 0.00 0.00 0.00 1012.8
20260905180227 140 208 0.0 0.0 0.00 0.00 0.00 1013.0
20260905175726 140 179 9.0 10.0 0.00 0.00 0.00 1012.8
20260905175221 140 165 0.0 0.0 0.00 0.00 0.00 1012.8
20260905174716 140 241 0.0 0.0 0.00 0.00 0.00 1013.1
20260905174206 140 140 6.0 9.0 0.00 0.00 0.00 1012.9
20260905173703 140 105 0.0 0.0 0.00 0.00 0.00 1013.1
20260905173158 140 215 0.0 0.0 0.00 0.00 0.00 1013.4
20260905172657 140 204 0.0 0.0 0.00 0.00 0.00 1013.5
20260905172152 140 249 0.0 0.0 0.00 0.00 0.00 1013.3
20260905171647 140 148 0.0 0.0 0.00 0.00 0.00 1013.5
20260905171143 140 225 0.0 0.0 0.00 0.00 0.00 1013.6
20260905170641 140 157 0.0 0.0 0.00 0.00 0.00 1013.7
20260905170135 140 193 5.0 8.0 0.00 0.00 0.00 1013.5
20260905165635 140 176 0.0 0.0 0.00 0.00 0.00 1013.7
20260905165130 140 247 0.0 0.0 0.00 0.00 0.00 1013.7
20260905164625 140 162 0.0 0.0 0.00 0.00 0.00 1013.9
20260905164124 140 205 0.0 0.0 0.00 0.00 0.00 1013.8
20260905163621 140 189 2.0 6.0 0.00 0.00 0.00 1013.7
20260905163117 140 176 0.0 0.0 0.00 0.00 0.00 1013.5
20260905162613 140 221 0.0 0.0 0.00 0.00 0.00 1013.6
20260905162112 140 86 0.0 0.0 0.00 0.00 0.00 1013.8
20260905161612 140 84 0.0 0.0 0.00 0.00 0.00 1013.5
20260905161109 140 157 0.0 0.0 0.00 0.00 0.00 1013.9
20260905160609 140 148 0.0 0.0 0.00 0.00 0.00 1013.6
20260905155557 140 216 0.0 0.0 0.00 0.00 0.00 1013.7
20260905155056 140 136 0.0 0.0 0.00 0.00 0.00 1013.8
20260905154551 140 195 0.0 0.0 0.00 0.00 0.00 1013.8
20260905154046 140 197 0.0 0.0 0.00 0.00 0.00 1013.8
20260905153543 140 240 0.0 0.0 0.00 0.00 0.00 1014.0
20260905153042 140 243 0.0 0.0 0.00 0.00 0.00 1013.9
20260905152537 140 188 0.0 0.0 0.00 0.00 0.00 1013.5
20260905152032 140 212 0.0 0.0 0.00 0.00 0.00 1013.7
20260905151527 140 223 0.0 0.0 0.00 0.00 0.00 1013.7
20260905151023 140 160 0.0 0.0 0.00 0.00 0.00 1013.8
20260905150518 140 186 0.0 0.0 0.00 0.00 0.00 1013.6
20260905150016 140 227 0.0 0.0 0.00 0.00 0.00 1013.6
20260905145509 140 218 0.0 0.0 0.00 0.00 0.00 1013.7
20260905145009 140 250 0.0 0.0 0.00 0.00 0.00 1014.0
20260905144504 140 209 0.0 0.0 0.00 0.00 0.00 1014.0
20260905144003 140 201 0.0 0.0 0.00 0.00 0.00 1013.8
20260905143502 140 239 0.0 0.0 0.00 0.00 0.00 1013.9
20260905142957 140 223 0.0 0.0 0.00 0.00 0.00 1013.9
20260905142455 140 182 0.0 0.0 0.00 0.00 0.00 1013.7
20260905141946 140 218 0.0 0.0 0.00 0.00 0.00 1013.9
20260905141446 140 197 0.0 0.0 0.00 0.00 0.00 1014.0
20260905140942 140 159 0.0 0.0 0.00 0.00 0.00 1013.9
20260905140437 140 129 0.0 0.0 0.00 0.00 0.00 1013.9
20260905135936 140 223 0.0 0.0 0.00 0.00 0.00 1013.9
20260905135432 140 163 0.0 0.0 0.00 0.00 0.00 1014.0
20260905134927 140 118 0.0 0.0 0.00 0.00 0.00 1013.8
20260905134426 140 148 0.0 0.0 0.00 0.00 0.00 1013.7
20260905133920 140 188 0.0 0.0 0.00 0.00 0.00 1013.7
20260905133415 140 139 0.0 0.0 0.00 0.00 0.00 1013.8
20260905132915 140 161 0.0 0.0 0.00 0.00 0.00 1013.8
20260905132409 140 163 0.0 0.0 0.00 0.00 0.00 1013.7
20260905131905 140 135 0.0 0.0 0.00 0.00 0.00 1014.0
20260905131400 140 127 0.0 0.0 0.00 0.00 0.00 1013.6
20260905130855 140 146 0.0 0.0 0.00 0.00 0.00 1013.7
20260905130354 140 152 0.0 0.0 0.00 0.00 0.00 1013.7
20260905125849 140 113 0.0 0.0 0.00 0.00 0.00 1013.6
20260905125344 140 217 0.0 0.0 0.00 0.00 0.00 1013.4
20260905124840 140 216 0.0 0.0 0.00 0.00 0.00 1013.7
20260905124337 140 247 0.0 0.0 0.00 0.00 0.00 1013.5
20260905123836 140 249 0.0 0.0 0.00 0.00 0.00 1013.5
20260905123333 140 249 0.0 0.0 0.00 0.00 0.00 1013.4
20260905122833 140 250 0.0 0.0 0.00 0.00 0.00 1013.4
20260905122332 140 250 0.0 0.0 0.00 0.00 0.00 1013.3
20260905121827 140 252 0.0 0.0 0.00 0.00 0.00 1013.4
20260905121324 140 233 0.0 0.0 0.00 0.00 0.00 1013.2
20260905120822 140 220 0.0 0.0 0.00 0.00 0.00 1013.5
20260905120317 140 212 0.0 0.0 0.00 0.00 0.00 1013.1
20260905115812 140 213 0.0 0.0 0.00 0.00 0.00 1013.1
20260905115312 140 220 0.0 0.0 0.00 0.00 0.00 1013.3
20260905114812 140 220 0.0 0.0 0.00 0.00 0.00 1013.3
20260905114311 140 175 0.0 0.0 0.00 0.00 0.00 1013.0
20260905113810 140 163 0.0 0.0 0.00 0.00 0.00 1013.3
20260905113306 140 202 0.0 0.0 0.00 0.00 0.00 1013.1
20260905112802 140 205 0.0 0.0 0.00 0.00 0.00 1013.1
20260905112256 140 192 0.0 0.0 0.00 0.00 0.00 1013.1
20260905111751 140 131 0.0 0.0 0.00 0.00 0.00 1012.9
20260905111251 140 128 0.0 0.0 0.00 0.00 0.00 1013.1
20260905110750 140 116 0.0 0.0 0.00 0.00 0.00 1013.1
20260905110244 140 153 0.0 0.0 0.00 0.00 0.00 1013.1
20260905105740 140 165 0.0 0.0 0.00 0.00 0.00 1012.9
20260905105239 140 174 0.0 0.0 0.00 0.00 0.00 1012.8
20260905104734 140 251 0.0 0.0 0.00 0.00 0.00 1013.0
20260905104230 140 255 0.0 0.0 0.00 0.00 0.00 1013.2
20260905103724 140 144 0.0 0.0 0.00 0.00 0.00 1013.1
20260905103221 140 144 0.0 0.0 0.00 0.00 0.00 1013.1
20260905102716 140 144 0.0 0.0 0.00 0.00 0.00 1013.1
20260905102212 140 144 0.0 0.0 0.00 0.00 0.00 1013.1
20260905101711 140 147 0.0 0.0 0.00 0.00 0.00 1012.9
20260905101210 140 155 0.0 0.0 0.00 0.00 0.00 1012.8
20260905100706 140 162 0.0 0.0 0.00 0.00 0.00 1013.0
20260905100201 140 169 0.0 0.0 0.00 0.00 0.00 1012.8
20260905095700 140 170 0.0 0.0 0.00 0.00 0.00 1013.0
20260905095149 140 169 0.0 0.0 0.00 0.00 0.00 1013.1
20260905094644 140 170 0.0 0.0 0.00 0.00 0.00 1012.9
20260905094143 140 173 0.0 0.0 0.00 0.00 0.00 1012.7
20260905093638 140 174 0.0 0.0 0.00 0.00 0.00 1012.8
20260905093134 140 179 0.0 0.0 0.00 0.00 0.00 1012.7
20260905092635 140 179 0.0 0.0 0.00 0.00 0.00 1012.9
20260905092130 140 179 0.0 0.0 0.00 0.00 0.00 1013.2
20260905091630 140 179 0.0 0.0 0.00 0.00 0.00 1013.0
20260905091130 140 179 0.0 0.0 0.00 0.00 0.00 1012.7
20260905090625 140 194 0.0 0.0 0.00 0.00 0.00 1012.8
20260905090120 140 194 0.0 0.0 0.00 0.00 0.00 1012.6
20260905085618 140 172 0.0 0.0 0.00 0.00 0.00 1012.7
20260905085114 140 175 0.0 0.0 0.00 0.00 0.00 1012.6
20260905084613 140 178 0.0 0.0 0.00 0.00 0.00 1012.5
20260905084109 140 161 0.0 0.0 0.00 0.00 0.00 1012.4
20260905083603 140 163 0.0 0.0 0.00 0.00 0.00 1012.2
20260905083100 140 167 0.0 0.0 0.00 0.00 0.00 1012.5
20260905082554 140 170 0.0 0.0 0.00 0.00 0.00 1012.7
20260905082051 140 165 0.0 0.0 0.00 0.00 0.00 1012.2
20260905081549 140 163 0.0 0.0 0.00 0.00 0.00 1012.7
20260905081039 140 140 0.0 0.0 0.00 0.00 0.00 1012.6
20260905080538 140 122 0.0 0.0 0.00 0.00 0.00 1012.5
20260905080034 140 113 0.0 0.0 0.00 0.00 0.00 1012.7
20260905075532 140 154 0.0 0.0 0.00 0.00 0.00 1012.7
20260905075027 140 167 0.0 0.0 0.00 0.00 0.00 1012.9
20260905074522 140 177 0.0 0.0 0.00 0.00 0.00 1012.7
20260905074017 140 182 0.0 0.0 0.00 0.00 0.00 1012.6
20260905073512 140 174 0.0 0.0 0.00 0.00 0.00 1012.8
20260905073008 140 195 0.0 0.0 0.00 0.00 0.00 1012.8
20260905072502 140 192 0.0 0.0 0.00 0.00 0.00 1013.0
20260905071957 140 206 0.0 0.0 0.00 0.00 0.00 1012.9
20260905071455 140 155 0.0 0.0 0.00 0.00 0.00 1013.1
20260905070954 140 158 0.0 0.0 0.00 0.00 0.00 1012.8
20260905070450 140 153 0.0 0.0 0.00 0.00 0.00 1013.0
20260905065950 140 191 0.0 0.0 0.00 0.00 0.00 1013.0
20260905065449 140 139 0.0 0.0 0.00 0.00 0.00 1012.9
20260905064943 140 143 0.0 0.0 0.00 0.00 0.00 1013.0
20260905064438 140 176 0.0 0.0 0.00 0.00 0.00 1013.0
20260905063933 140 166 0.0 0.0 0.00 0.00 0.00 1013.2
20260905063427 140 196 0.0 0.0 0.00 0.00 0.00 1013.1
20260905062924 140 183 0.0 0.0 0.00 0.00 0.00 1013.1
20260905062418 140 164 0.0 0.0 0.00 0.00 0.00 1013.1
20260905061913 140 148 0.0 0.0 0.00 0.00 0.00 1012.7
20260905061413 140 141 0.0 0.0 0.00 0.00 0.00 1013.1
20260905060912 140 182 0.0 0.0 0.00 0.00 0.00 1013.3
20260905060409 140 139 0.0 0.0 0.00 0.00 0.00 1013.0
20260905055908 140 155 0.0 0.0 0.00 0.00 0.00 1012.7
20260905055403 140 156 0.0 0.0 0.00 0.00 0.00 1012.9
20260905054903 140 162 0.0 0.0 0.00 0.00 0.00 1013.1
20260905054359 140 153 0.0 0.0 0.00 0.00 0.00 1012.9
20260905053858 140 130 0.0 0.0 0.00 0.00 0.00 1012.6
20260905053353 140 124 0.0 0.0 0.00 0.00 0.00 1012.8
20260905052849 140 150 0.0 0.0 0.00 0.00 0.00 1012.6
20260905052348 140 160 0.0 0.0 0.00 0.00 0.00 1012.6
20260905051848 140 163 0.0 0.0 0.00 0.00 0.00 1012.6
20260905051344 140 157 0.0 0.0 0.00 0.00 0.00 1012.5
20260905050841 140 208 0.0 0.0 0.00 0.00 0.00 1012.2
20260905050336 140 174 0.0 0.0 0.00 0.00 0.00 1012.5
20260905045831 140 156 0.0 0.0 0.00 0.00 0.00 1012.3
20260905045326 140 183 0.0 0.0 0.00 0.00 0.00 1012.3
20260905044822 140 188 0.0 0.0 0.00 0.00 0.00 1012.6
20260905044317 140 190 0.0 0.0 0.00 0.00 0.00 1012.5
20260905043816 140 172 0.0 0.0 0.00 0.00 0.00 1012.6
20260905043311 140 172 0.0 0.0 0.00 0.00 0.00 1012.4
20260905042811 140 177 0.0 0.0 0.00 0.00 0.00 1012.5
20260905042307 140 147 0.0 0.0 0.00 0.00 0.00 1012.5
20260905041800 140 185 0.0 0.0 0.00 0.00 0.00 1012.4
20260905041256 140 172 0.0 0.0 0.00 0.00 0.00 1012.2
20260905040750 140 158 0.0 0.0 0.00 0.00 0.00 1012.4
20260905040249 140 122 0.0 0.0 0.00 0.00 0.00 1012.3
20260905035744 140 172 0.0 1.0 0.00 0.00 0.00 1012.5
20260905035240 140 131 0.0 0.0 0.00 0.00 0.00 1012.3
20260905034737 140 149 0.0 0.0 0.00 0.00 0.00 1012.2
20260905034237 140 150 0.0 0.0 0.00 0.00 0.00 1012.0
20260905033735 140 136 0.0 0.0 0.00 0.00 0.00 1012.3
20260905033225 140 154 0.0 0.0 0.00 0.00 0.00 1012.3
20260905032725 140 147 1.0 3.0 0.00 0.00 0.00 1012.1
20260905032220 140 111 0.0 0.0 0.00 0.00 0.00 1011.9
20260905031715 140 134 0.0 0.0 0.00 0.00 0.00 1012.1
20260905031211 140 141 0.0 0.0 0.00 0.00 0.00 1011.9
20260905030706 140 142 0.0 0.0 0.00 0.00 0.00 1011.9
20260905030201 140 122 0.0 0.0 0.00 0.00 0.00 1012.0
20260905025656 140 115 0.0 0.0 0.00 0.00 0.00 1012.0
20260905025151 140 127 0.0 0.0 0.00 0.00 0.00 1011.6
20260905024647 140 148 0.0 0.0 0.00 0.00 0.00 1011.7
20260905024143 140 138 0.0 1.0 0.00 0.00 0.00 1011.8
20260905023637 140 131 0.0 0.0 0.00 0.00 0.00 1011.6
20260905023136 140 128 0.0 0.0 0.00 0.00 0.00 1011.4
20260905022636 140 130 4.0 7.0 0.00 0.00 0.00 1011.3
20260905022132 140 147 0.0 0.0 0.00 0.00 0.00 1011.5
20260905021632 140 136 0.0 0.0 0.00 0.00 0.00 1011.3
20260905021128 140 152 0.0 0.0 0.00 0.00 0.00 1011.1
20260905020627 140 190 0.0 0.0 0.00 0.00 0.00 1010.8
20260905020122 140 164 0.0 0.0 0.00 0.00 0.00 1011.1
20260905015615 140 80 0.0 0.0 0.00 0.00 0.00 1010.8
20260905015115 140 126 0.0 0.0 0.00 0.00 0.00 1010.7
20260905014609 140 150 0.0 0.0 0.00 0.00 0.00 1010.6
20260905014105 140 119 0.0 0.0 0.00 0.00 0.00 1010.8
20260905013555 140 124 0.0 0.0 0.00 0.00 0.00 1010.5
20260905013052 140 124 0.0 0.0 0.00 0.00 0.00 1010.4
20260905012550 140 147 0.0 0.0 0.00 0.00 0.00 1010.4
20260905012048 140 136 0.0 0.0 0.00 0.00 0.00 1010.3
20260905011543 140 154 0.0 0.0 0.00 0.00 0.00 1010.1
20260905011039 140 135 0.0 0.0 0.00 0.00 0.00 1010.2
20260905010533 140 127 1.0 2.0 0.00 0.00 0.00 1010.0
20260905010030 140 137 0.0 0.0 0.00 0.00 0.00 1010.2
20260905005525 140 134 0.0 0.0 0.00 0.00 0.00 1010.2
20260905005021 140 125 0.0 0.0 0.00 0.00 0.00 1010.2
20260905004521 140 137 0.0 0.0 0.00 0.00 0.00 1010.0
20260905004015 140 142 0.0 0.0 0.00 0.00 0.00 1010.0
20260905003511 140 149 0.0 0.0 0.00 0.00 0.00 1010.1
20260905003007 140 155 0.0 0.0 0.00 0.00 0.00 1010.0
20260905002501 140 129 0.0 0.0 0.00 0.00 0.00 1010.0
20260905001956 140 110 3.0 7.0 0.00 0.00 0.00 1009.9
20260905001451 140 149 0.0 0.0 0.00 0.00 0.00 1009.6
20260905000951 140 144 0.0 1.0 0.00 0.00 0.00 1009.8
20260905000446 140 131 3.0 7.0 0.00 0.00 0.00 1009.8
20260904235942 140 157 2.0 7.0 0.00 0.00 0.00 1009.7
20260904235438 140 165 0.0 1.0 0.00 0.00 0.00 1009.5
20260904234931 140 117 3.0 8.0 0.00 0.00 0.00 1009.6
20260904234432 140 129 7.0 9.0 0.00 0.00 0.00 1009.6
20260904233927 140 176 0.0 0.0 0.00 0.00 0.00 1009.5
20260904233423 140 104 0.0 0.0 0.00 0.00 0.00 1009.3